Location: Pierrefonds
(49.3515°N, 2.9814°E)
Time: 05:37:46
(UTC+00:00)

Daily predictions for brighter satellites

Satellite Brightness Start Highest point End
(mag) Time Altitude Azimuth Time Altitude Azimuth Time Altitude Azimuth
SL-16 R/B 4.0 00:59:04 33° NNE 00:59:04 33° NNE 01:02:41 10° N
SL-16 R/B 4.3 01:06:44 22° N 01:06:44 22° N 01:09:00 10° NNE
ATLAS 5 CENTAUR R/B 4.4 01:40:35 15° NNE 01:40:35 15° NNE 01:41:33 10° NNE
ADEOS II 3.8 01:33:47 10° NNE 01:36:36 29° NE 01:36:36 29° NE
Cosmos 1697 Rocket 4.1 02:08:48 10° NNW 02:13:59 35° NE 02:19:08 10° ESE
Cosmos 1821 Rocket 4.2 02:17:01 63° N 02:17:01 63° N 02:22:15 10° N
ALOS 4.3 02:13:33 10° NE 02:17:11 22° E 02:17:49 21° ESE
Cosmos 2123 Rocket 4.1 02:18:14 10° N 02:24:29 70° ENE 02:24:57 67° ESE
CZ-2D R/B 3.4 02:23:21 10° N 02:26:25 31° NNW 02:26:25 31° NNW
Resurs 1-4 Rocket 3.5 02:24:46 10° N 02:27:37 29° NNW 02:27:37 29° NNW
Cosmos 1934 Rocket 4.2 02:35:19 62° SE 02:36:13 70° E 02:42:30 10° NNE
SL-16 R/B 4.2 02:44:11 20° NW 02:44:11 20° NW 02:46:13 10° NNW
Cosmos 1932 4.5 02:46:39 68° NW 02:46:45 68° NW 02:53:13 10° NE
SL-16 R/B 4.5 02:48:36 12° NW 02:49:35 12° NNW 02:51:46 10° N
IDEFIX/ARIANE 42P 3.4 02:45:59 10° N 02:49:44 40° NNW 02:49:44 40° NNW
Cosmos 1980 Rocket 3.6 02:48:44 10° NNW 02:53:54 36° NE 02:59:01 10° ESE
USA 305 4.2 02:57:54 33° ESE 02:57:54 33° ESE 03:00:46 10° ENE
MSX 4.0 02:52:29 10° N 02:57:46 57° NW 02:57:46 57° NW
BREEZE-M DEB (TANK) 4.3 03:08:22 32° S 03:08:22 32° S 03:15:46 10° SE
CBERS-1 4.2 03:02:11 10° NNE 03:07:19 68° ESE 03:08:37 48° SSE
X-37B 3.6 03:10:50 11° ESE 03:10:50 11° ESE 03:11:03 10° ESE
IRS-1D 3.4 03:04:39 10° NNE 03:09:59 73° WNW 03:10:11 72° W
Cosmos 1190 Rocket 4.0 03:06:00 10° NNW 03:11:14 79° ENE 03:16:27 10° SSE
BREEZE-M DEB (TANK) 3.8 03:13:25 31° E 03:13:25 31° E 03:14:44 10° E
Cosmos 2056 Rocket 4.5 03:09:49 25° SSE 03:12:17 43° ESE 03:17:06 10° NE
Cosmos 1633 Rocket 3.8 03:09:28 10° N 03:13:43 50° ENE 03:17:57 10° SSE
ATLAS CENTAUR R/B 3.3 03:12:27 22° SSE 03:14:25 30° ESE 03:18:39 10° ENE
PAYLOAD A 4.3 03:12:36 10° NNE 03:17:20 58° ESE 03:19:42 29° S
ADEOS II 3.2 03:13:50 10° N 03:17:31 29° NW 03:17:31 29° NW
Cosmos 407 Rocket 3.8 03:15:54 10° NNW 03:27:30 - S 03:20:08 51° WNW
Atlas Centaur 2 4.4 03:21:38 18° S 03:22:15 19° S 03:27:13 10° SE
ATLAS 5 CENTAUR R/B 3.9 03:22:01 13° NNW 03:23:40 15° N 03:26:27 10° NNE
Cosmos 1666 Rocket 3.6 03:21:50 10° N 03:26:20 82° E 03:30:04 15° SSE
Meteor 1-14 Rocket 4.3 03:22:53 10° NNW 03:28:41 56° W 03:30:18 42° SW
Cosmos 1515 4.2 03:29:05 39° SSE 03:30:06 54° E 03:33:46 10° NNE
Cosmos 1328 Rocket 4.3 03:28:13 19° SSE 03:31:11 53° E 03:35:29 10° NNE
USA 307 3.1 03:32:44 52° S 03:33:09 54° SE 03:37:14 10° ENE
Cosmos 1484 Rocket 4.4 03:29:54 10° NNE 03:33:34 34° E 03:37:11 10° SSE
CZ-2C R/B 2.4 03:30:04 10° NNE 03:35:08 86° ESE 03:37:31 31° SSW
Cosmos 1833 Rocket 2.7 03:32:50 36° SSW 03:35:18 83° ESE 03:41:00 10° NNE
Cosmos 2360 4.1 03:32:13 10° NNW 03:37:54 68° WSW 03:43:32 10° SSE
FENGYUN 3A 3.6 03:34:32 10° N 03:39:52 63° WNW 03:41:44 39° SW
Cosmos 1151 Rocket 2.8 03:39:15 55° SSW 03:40:06 78° W 03:44:24 10° N
Meteor 1-11 Rocket 3.8 03:36:59 10° NNW 03:43:00 90° W 03:48:58 10° S
USA 306 2.8 03:44:56 56° SW 03:45:42 74° SSE 03:49:50 10° ENE
ARIANE 5 R/B 2.7 03:44:16 10° NNE 03:49:19 70° ESE 03:54:18 10° S
Cosmos 2082 Rocket 3.0 03:46:54 10° S 03:52:16 48° ESE 03:57:39 10° NE
Cosmos 2098 Rocket 4.5 03:49:50 10° NNW 03:50:20 14° NNW 03:50:20 14° NNW
Cosmos 1153 Rocket 4.4 03:46:50 10° S 03:52:59 84° W 03:59:15 10° N
Lacrosse 4 Rocket 3.7 03:49:29 10° NNW 03:53:08 25° NE 03:56:48 10° E
Cosmos 2100 Rocket 4.3 03:48:35 10° S 03:54:39 67° E 04:00:46 10° NNE
ALOS 2.4 03:50:18 10° N 03:54:50 50° WNW 03:56:16 37° WSW
Cosmos 1470 Rocket 3.5 03:53:13 10° N 03:57:34 85° E 04:01:56 10° S
Cosmos 1697 Rocket 2.8 03:52:42 10° NW 03:58:09 49° WSW 04:03:32 10° S
COSMOS 2406 3.4 03:55:00 13° SSW 04:00:03 71° ESE 04:05:43 10° NNE
METEOR-M 4.0 03:54:48 10° NNE 04:00:12 81° WNW 04:05:23 11° SSW
Helios 1B rocket 2.3 03:56:55 10° N 04:00:59 68° WNW 04:03:02 28° SSW
Cosmos 676 Rocket 3.9 03:56:17 10° NNW 04:01:28 67° WSW 04:06:39 10° S
Cosmos 1356 3.5 04:02:57 46° WNW 04:02:57 46° WNW 04:05:59 10° N
IRS-P3 4.1 03:59:29 10° NNE 04:04:52 86° WNW 04:10:13 10° SSW
CZ-2D R/B 3.5 04:01:51 10° NNE 04:05:50 76° ESE 04:09:48 10° S
ERBS 2.6 04:06:51 38° NW 04:07:03 39° NNW 04:09:49 10° NE
Cosmos 1743 2.7 04:04:11 10° NNW 04:07:55 56° W 04:11:38 10° S
USA 308 2.8 04:06:20 35° WSW 04:08:01 85° SSE 04:12:11 10° ENE
CZ-2C R/B 2.5 04:02:51 10° S 04:08:01 66° WSW 04:13:21 10° NNW
BREEZE-M DEB (TANK) 1.6 04:07:52 52° WSW 04:08:24 82° SSE 04:12:20 10° E
Cosmos 1624 Rocket 4.0 04:06:30 21° SW 04:10:06 68° WNW 04:15:27 10° NNE
Cosmos 1536 2.9 04:10:03 10° NNW 04:14:00 51° W 04:17:54 10° S
Cosmos 1441 Rocket 3.0 04:12:34 19° SSW 04:15:07 67° WNW 04:18:53 10° N
Envisat 3.2 04:10:50 10° NNE 04:15:56 72° ESE 04:21:00 10° S
Meteor 1-4 Rocket 2.7 04:13:40 10° NNW 04:17:10 46° W 04:20:40 10° S
CZ-2C R/B 4.0 04:20:32 10° NNE 04:24:08 42° E 04:27:46 10° S
Cosmos 1371 Rocket 4.3 04:20:33 19° SW 04:24:11 50° WNW 04:29:18 10° NNE
Cosmos 1346 Rocket 3.2 04:22:51 22° SW 04:24:58 40° WNW 04:28:45 10° N
Cosmos 2322 Rocket 3.7 04:23:19 10° NNW 04:28:38 38° NE 04:33:54 10° ESE
COSMO-SKYMED 1 3.6 04:26:13 10° SE 04:30:25 50° ENE 04:34:39 10° N
H-2A R/B 2.9 04:30:26 10° NNE 04:34:05 71° ESE 04:37:44 10° S
Cosmos 1459 Rocket 4.0 04:29:18 10° SSW 04:35:38 71° WNW 04:42:02 10° N
SL-08 R/B 3.5 04:31:13 10° S 04:35:42 48° W 04:40:18 10° NNW
USA 305 3.0 04:33:26 20° W 04:36:10 64° NNW 04:40:17 10° ENE
Tsikada Rocket 4.3 04:30:48 10° N 04:37:10 73° E 04:43:24 10° SSE
Cosmos 1980 Rocket 2.4 04:32:42 10° NW 04:38:03 46° WSW 04:43:21 10° S
CENTAUR R/B 3.1 04:33:20 10° SSW 04:39:02 60° ESE 04:45:59 10° NE
Cosmos 1869 Rocket 3.9 04:35:17 10° N 04:39:45 70° ENE 04:44:08 10° SSE
Meteor 2-9 Rocket 4.2 04:34:55 10° NNW 04:40:41 71° W 04:46:16 10° S
Meteor 1-29 2.7 04:37:33 10° N 04:40:50 67° WNW 04:44:06 10° SSW
Cosmos 1802 Rocket 4.0 04:37:19 10° SSW 04:43:42 77° W 04:50:03 10° N
X-37B 1.4 04:42:04 18° WSW 04:43:42 33° S 04:46:21 10° ESE
CZ-2C R/B 3.3 04:37:58 10° NNE 04:43:48 87° WNW 04:49:24 10° SSW
Cosmos 2369 4.1 04:39:17 10° NW 04:44:32 39° WSW 04:49:44 10° S
Meteor 1-27 Rocket 4.0 04:39:25 10° SSW 04:45:02 50° WNW 04:50:47 10° N
Cosmos 1242 Rocket 4.2 04:42:00 10° N 04:45:15 36° ENE 04:48:27 10° SE
Cosmos 1850 Rocket 4.0 04:41:10 10° NNW 04:46:29 70° WSW 04:51:47 10° SSE
COSMOS 2455 4.2 04:41:08 10° NNW 04:46:46 39° NE 04:52:23 10° ESE
YAOGAN 6 3.0 04:46:04 10° N 04:49:30 40° WNW 04:52:54 10° SW
Cosmos 1633 Rocket 4.4 04:48:08 10° NW 04:51:07 18° W 04:54:05 10° SW
Cosmos 2278 3.7 04:46:37 10° NNW 04:52:14 64° WSW 04:57:48 10° SSE
DMSP B5D2-2 4.2 04:47:15 10° SSE 04:52:31 85° ENE 04:57:50 10° NNW
ATLAS CENTAUR R/B 2.0 04:48:27 11° WSW 04:52:59 53° NW 04:57:45 10° NNE
Cosmos 1725 Rocket 4.0 04:47:15 10° S 04:53:35 83° W 04:59:58 10° N
Cosmos 2056 Rocket 4.3 04:50:11 11° WSW 04:54:32 32° NW 04:59:07 10° N
CZ-4C R/B 3.7 04:51:43 10° S 04:55:44 48° W 04:59:57 10° NNW
SL-16 R/B 2.5 04:50:09 10° NNW 04:55:51 74° ENE 05:01:31 10° SE
Meteor 1-18 Rocket 4.5 04:50:31 10° S 04:56:14 77° E 05:01:52 10° NNE
NOSS 3-2 (C) 4.5 04:51:46 10° S 04:56:52 44° ESE 05:02:48 10° NE
NOSS 3-2 (A) 3.5 04:53:49 10° SW 04:59:18 79° SE 05:05:46 10° NE
Okean 1 3.6 04:56:10 10° SSW 05:00:05 48° WNW 05:04:01 10° N
NOAA 11 4.2 04:56:07 10° NNE 05:01:39 85° WNW 05:07:06 10° SSW
BREEZE-M DEB (TANK) 3.7 04:59:06 12° W 05:01:43 33° SSW 05:08:32 10° SE
Cosmos 1933 Rocket 4.1 04:58:28 10° NNW 05:02:33 36° W 05:06:35 10° SSW
Cosmos 44 Rocket 3.3 04:58:29 10° SW 05:03:09 62° NW 05:07:51 10° NE
SKYMED 3 4.5 04:59:21 10° SSE 05:03:32 90° NNE 05:07:43 10° NNW
Cosmos 1733 Rocket 4.4 04:59:27 10° N 05:03:45 45° ENE 05:07:59 10° SSE
Cosmos 1461 3.2 05:00:50 10° SSW 05:04:48 66° SE 05:08:58 10° NE
Cosmos 2173 Rocket 4.3 05:00:49 10° SW 05:06:34 42° WNW 05:12:21 10° N
Cosmos 1484 Rocket 3.9 05:04:24 10° N 05:07:42 25° WNW 05:10:59 10° WSW
GP-B 3.6 05:04:45 10° SSW 05:08:53 38° W 05:13:02 10° NNW
ATLAS 5 CENTAUR R/B 4.0 05:06:22 10° NNW 05:09:56 20° NNE 05:14:00 10° ENE
Spot 4 Rocket 4.3 05:06:25 10° N 05:11:22 49° WNW 05:16:17 10° SW
SJ-6F 4.4 05:07:25 10° N 05:11:34 66° WNW 05:15:40 10° SSW
USA 307 3.2 05:08:32 10° W 05:12:38 53° NNW 05:16:43 10° ENE
CZ-2C R/B 4.0 05:09:31 10° NNW 05:12:38 17° NW 05:15:42 10° W
USA 238 DEB 4.4 05:06:34 10° SSW 05:12:47 54° ESE 05:19:23 10° NE
USA 238 4.5 05:06:42 10° SSW 05:12:54 54° ESE 05:19:31 10° NE
PSLV R/B 3.7 05:08:54 10° N 05:13:10 57° WNW 05:17:22 10° SSW
Cosmos 1741 Rocket 4.4 05:10:00 10° NW 05:14:55 43° WSW 05:19:49 10° S
CZ-3 R/B 4.2 05:16:08 10° WSW 05:28:01 21° SSW 05:33:38 10° SSE
BREEZE M DEB (TANK) 3.8 05:18:24 10° W 05:33:42 84° SSW 05:37:39 10° ESE
